Time,TemperatureF,DewpointF,PressureIn,WindDirection,WindDirectionDegrees,WindSpeedMPH,WindSpeedGustMPH,Humidity,HourlyPrecipIn,Conditions,Clouds,dailyrainin,SoftwareType,DateUTC
2013-03-31 00:03:00,44.0,-99.9,-100.00,SE,130,2.0,4.0,49,-99.99,,,-99.99,,2013-03-31 04:03:00,
2013-03-31 00:13:00,44.0,26.0,-100.00,SE,140,4.0,5.0,50,-99.99,,,-99.99,,2013-03-31 04:13:00,
2013-03-31 00:23:00,44.0,26.0,-100.00,SE,140,4.0,5.0,50,-99.99,,,-99.99,,2013-03-31 04:23:00,
2013-03-31 00:33:00,43.0,26.0,-100.00,SSE,150,3.0,6.0,51,-99.99,,,-99.99,,2013-03-31 04:33:00,
2013-03-31 00:42:00,42.0,26.0,-100.00,SE,135,3.0,6.0,53,-99.99,,,-99.99,,2013-03-31 04:42:00,
2013-03-31 00:52:00,42.0,26.0,-100.00,SE,135,3.0,6.0,53,-99.99,,,-99.99,,2013-03-31 04:52:00,
2013-03-31 01:02:00,43.0,27.0,-100.00,SE,135,4.0,6.0,52,-99.99,,,-99.99,,2013-03-31 05:02:00,
2013-03-31 01:13:00,44.0,27.0,-100.00,SE,125,3.0,6.0,51,-99.99,,,-99.99,,2013-03-31 05:13:00,
2013-03-31 01:22:00,43.0,26.0,-100.00,East,90,2.0,5.0,51,-99.99,,,-99.99,,2013-03-31 05:22:00,
2013-03-31 01:32:00,43.0,26.0,-100.00,East,90,2.0,5.0,51,-99.99,,,-99.99,,2013-03-31 05:32:00,
2013-03-31 01:42:00,42.0,26.0,-100.00,East,80,2.0,4.0,52,-99.99,,,-99.99,,2013-03-31 05:42:00,
2013-03-31 01:52:00,42.0,26.0,-100.00,East,80,2.0,4.0,52,-99.99,,,-99.99,,2013-03-31 05:52:00,
2013-03-31 02:02:00,41.0,26.0,-100.00,East,85,1.0,3.0,55,-99.99,,,-99.99,,2013-03-31 06:02:00,
2013-03-31 02:12:00,41.0,28.0,-100.00,SE,125,1.0,5.0,59,-99.99,,,-99.99,,2013-03-31 06:12:00,
2013-03-31 02:22:00,41.0,28.0,-100.00,SE,125,1.0,5.0,59,-99.99,,,-99.99,,2013-03-31 06:22:00,
2013-03-31 02:33:00,41.0,29.0,-100.00,SE,135,2.0,4.0,62,-99.99,,,-99.99,,2013-03-31 06:33:00,
2013-03-31 02:42:00,41.0,29.0,-100.00,East,95,1.0,4.0,64,-99.99,,,-99.99,,2013-03-31 06:42:00,
2013-03-31 02:52:00,41.0,31.0,-100.00,SE,125,3.0,5.0,68,-99.99,,,-99.99,,2013-03-31 06:52:00,
2013-03-31 03:02:00,41.0,31.0,-100.00,SE,125,3.0,5.0,68,-99.99,,,-99.99,,2013-03-31 07:02:00,
2013-03-31 03:12:00,40.0,31.0,-100.00,SSE,155,2.0,5.0,70,-99.99,,,-99.99,,2013-03-31 07:12:00,
2013-03-31 03:22:00,40.0,31.0,-100.00,SSE,155,2.0,5.0,70,-99.99,,,-99.99,,2013-03-31 07:22:00,
2013-03-31 03:33:00,41.0,33.0,-100.00,NNE,30,1.0,3.0,74,-99.99,,,-99.99,,2013-03-31 07:33:00,
2013-03-31 03:42:00,40.0,33.0,-100.00,SE,135,2.0,4.0,75,-99.99,,,-99.99,,2013-03-31 07:42:00,
2013-03-31 03:52:00,40.0,33.0,-100.00,SE,135,2.0,4.0,75,-99.99,,,-99.99,,2013-03-31 07:52:00,
2013-03-31 04:02:00,41.0,34.0,-100.00,SE,140,1.0,5.0,77,-99.99,,,-99.99,,2013-03-31 08:02:00,
2013-03-31 04:12:00,41.0,34.0,-100.00,ESE,105,0.0,2.0,78,-99.99,,,-99.99,,2013-03-31 08:12:00,
2013-03-31 04:22:00,40.0,35.0,-100.00,ENE,60,1.0,4.0,80,-99.99,,,-99.99,,2013-03-31 08:22:00,
2013-03-31 04:32:00,40.0,35.0,-100.00,ENE,60,1.0,4.0,80,-99.99,,,-99.99,,2013-03-31 08:32:00,
2013-03-31 04:42:00,40.0,35.0,-100.00,NE,45,2.0,3.0,81,-99.99,,,-99.99,,2013-03-31 08:42:00,
2013-03-31 04:52:00,40.0,35.0,-100.00,NE,45,2.0,3.0,81,-99.99,,,-99.99,,2013-03-31 08:52:00,
2013-03-31 05:02:00,39.0,34.0,-100.00,North,5,0.0,2.0,82,-99.99,,,-99.99,,2013-03-31 09:02:00,
2013-03-31 05:12:00,39.0,35.0,-100.00,WSW,255,0.0,1.0,84,-99.99,,,-99.99,,2013-03-31 09:12:00,
2013-03-31 05:22:00,39.0,35.0,-100.00,WSW,255,0.0,1.0,84,-99.99,,,-99.99,,2013-03-31 09:22:00,
2013-03-31 05:33:00,40.0,35.0,-100.00,ENE,60,0.0,1.0,85,-99.99,,,-99.99,,2013-03-31 09:33:00,
2013-03-31 05:42:00,40.0,36.0,-100.00,ENE,70,1.0,4.0,86,-99.99,,,-99.99,,2013-03-31 09:42:00,
2013-03-31 05:53:00,40.0,36.0,-100.00,ENE,70,1.0,4.0,86,-99.99,,,-99.99,,2013-03-31 09:53:00,
2013-03-31 06:03:00,40.0,36.0,-100.00,ENE,60,1.0,5.0,87,-99.99,,,-99.99,,2013-03-31 10:03:00,
2013-03-31 06:13:00,41.0,37.0,-100.00,East,80,2.0,4.0,88,-99.99,,,-99.99,,2013-03-31 10:13:00,
2013-03-31 06:24:00,41.0,37.0,-100.00,East,80,2.0,4.0,88,-99.99,,,-99.99,,2013-03-31 10:24:00,
2013-03-31 06:33:00,41.0,38.0,-100.00,NE,45,3.0,4.0,88,-99.99,,,-99.99,,2013-03-31 10:33:00,
2013-03-31 06:42:00,41.0,38.0,-100.00,ENE,60,2.0,7.0,88,-99.99,,,-99.99,,2013-03-31 10:42:00,
2013-03-31 06:53:00,42.0,39.0,-100.00,East,80,4.0,9.0,88,-99.99,,,-99.99,,2013-03-31 10:53:00,
2013-03-31 07:03:00,42.0,39.0,-100.00,East,80,4.0,9.0,88,-99.99,,,-99.99,,2013-03-31 11:03:00,
2013-03-31 07:12:00,44.0,40.0,-100.00,East,85,4.0,11.0,86,-99.99,,,-99.99,,2013-03-31 11:12:00,
2013-03-31 07:23:00,44.0,39.0,-100.00,East,85,4.0,9.0,83,-99.99,,,-99.99,,2013-03-31 11:23:00,
2013-03-31 07:33:00,44.0,39.0,-100.00,East,85,4.0,9.0,83,-99.99,,,-99.99,,2013-03-31 11:33:00,
2013-03-31 07:42:00,45.0,39.0,-100.00,East,90,4.0,11.0,80,-99.99,,,-99.99,,2013-03-31 11:42:00,
2013-03-31 07:52:00,46.0,39.0,-100.00,SSE,160,2.0,11.0,77,-99.99,,,-99.99,,2013-03-31 11:52:00,
2013-03-31 08:03:00,46.0,39.0,-100.00,SSE,160,2.0,11.0,77,-99.99,,,-99.99,,2013-03-31 12:03:00,
2013-03-31 08:12:00,46.0,39.0,-100.00,SE,140,5.0,9.0,76,-99.99,,,-99.99,,2013-03-31 12:12:00,
2013-03-31 08:22:00,46.0,39.0,-100.00,ESE,115,4.0,9.0,75,-99.99,,,-99.99,,2013-03-31 12:22:00,
2013-03-31 08:33:00,46.0,39.0,-100.00,ESE,115,4.0,9.0,75,-99.99,,,-99.99,,2013-03-31 12:33:00,
2013-03-31 08:42:00,47.0,39.0,-100.00,ESE,120,6.0,11.0,74,-99.99,,,-99.99,,2013-03-31 12:42:00,
2013-03-31 08:52:00,47.0,39.0,-100.00,ESE,115,4.0,11.0,73,-99.99,,,-99.99,,2013-03-31 12:52:00,
2013-03-31 09:02:00,47.0,39.0,-100.00,ESE,115,4.0,11.0,73,-99.99,,,-99.99,,2013-03-31 13:02:00,
2013-03-31 09:12:00,48.0,39.0,-100.00,SE,125,2.0,9.0,72,-99.99,,,-99.99,,2013-03-31 13:12:00,
2013-03-31 09:22:00,48.0,39.0,-100.00,East,95,6.0,12.0,71,-99.99,,,-99.99,,2013-03-31 13:22:00,
2013-03-31 09:32:00,48.0,39.0,-100.00,East,95,6.0,12.0,71,-99.99,,,-99.99,,2013-03-31 13:32:00,
2013-03-31 09:42:00,49.0,40.0,-100.00,East,95,5.0,10.0,70,-99.99,,,-99.99,,2013-03-31 13:42:00,
2013-03-31 09:52:00,49.0,40.0,-100.00,East,95,5.0,10.0,70,-99.99,,,-99.99,,2013-03-31 13:52:00,
2013-03-31 10:03:00,49.0,39.0,-100.00,ESE,115,3.0,10.0,69,-99.99,,,-99.99,,2013-03-31 14:03:00,
2013-03-31 10:12:00,49.0,39.0,-100.00,ESE,115,2.0,9.0,69,-99.99,,,-99.99,,2013-03-31 14:12:00,
2013-03-31 10:22:00,49.0,39.0,-100.00,ESE,115,2.0,9.0,69,-99.99,,,-99.99,,2013-03-31 14:22:00,
2013-03-31 10:33:00,50.0,40.0,-100.00,East,100,3.0,9.0,69,-99.99,,,-99.99,,2013-03-31 14:33:00,
2013-03-31 10:43:00,50.0,40.0,-100.00,ESE,105,2.0,7.0,68,-99.99,,,-99.99,,2013-03-31 14:43:00,
2013-03-31 10:52:00,50.0,40.0,-100.00,ESE,105,2.0,7.0,68,-99.99,,,-99.99,,2013-03-31 14:52:00,
2013-03-31 11:03:00,51.0,40.0,-100.00,East,95,6.0,11.0,68,-99.99,,,-99.99,,2013-03-31 15:03:00,
2013-03-31 11:13:00,51.0,41.0,-100.00,ENE,75,9.0,15.0,68,-99.99,,,-99.99,,2013-03-31 15:13:00,
2013-03-31 11:22:00,51.0,41.0,-100.00,ENE,75,9.0,15.0,68,-99.99,,,-99.99,,2013-03-31 15:22:00,
2013-03-31 11:33:00,53.0,42.0,-100.00,East,100,8.0,17.0,66,-99.99,,,-99.99,,2013-03-31 15:33:00,
2013-03-31 11:43:00,54.0,42.0,-100.00,East,100,6.0,15.0,63,-99.99,,,-99.99,,2013-03-31 15:43:00,
2013-03-31 11:53:00,54.0,41.0,-100.00,SE,125,5.0,20.0,62,-99.99,,,-99.99,,2013-03-31 15:53:00,
2013-03-31 12:03:00,54.0,41.0,-100.00,SE,125,5.0,20.0,62,-99.99,,,-99.99,,2013-03-31 16:03:00,
2013-03-31 12:13:00,54.0,41.0,-100.00,SE,125,7.0,16.0,61,-99.99,,,-99.99,,2013-03-31 16:13:00,
2013-03-31 12:23:00,54.0,41.0,-100.00,SE,125,7.0,16.0,61,-99.99,,,-99.99,,2013-03-31 16:23:00,
2013-03-31 12:33:00,55.0,41.0,-100.00,ENE,75,7.0,16.0,60,-99.99,,,-99.99,,2013-03-31 16:33:00,
2013-03-31 12:43:00,54.0,41.0,-100.00,East,85,9.0,15.0,60,-99.99,,,-99.99,,2013-03-31 16:43:00,
2013-03-31 12:53:00,54.0,41.0,-100.00,East,85,9.0,15.0,60,-99.99,,,-99.99,,2013-03-31 16:53:00,
2013-03-31 13:03:00,54.0,41.0,-100.00,ENE,70,7.0,13.0,61,-99.99,,,-99.99,,2013-03-31 17:03:00,
2013-03-31 13:12:00,54.0,41.0,-100.00,ESE,110,7.0,14.0,61,-99.99,,,-99.99,,2013-03-31 17:12:00,
2013-03-31 13:23:00,54.0,41.0,-100.00,ESE,110,7.0,14.0,61,-99.99,,,-99.99,,2013-03-31 17:23:00,
2013-03-31 13:32:00,54.0,41.0,-100.00,East,90,6.0,13.0,63,-99.99,,,-99.99,,2013-03-31 17:32:00,
2013-03-31 13:43:00,53.0,43.0,-100.00,ESE,105,6.0,14.0,69,-99.99,,,-99.99,,2013-03-31 17:43:00,
2013-03-31 13:52:00,53.0,43.0,-100.00,ESE,105,6.0,14.0,69,-99.99,,,-99.99,,2013-03-31 17:52:00,
2013-03-31 14:03:00,51.0,44.0,-100.00,SE,125,4.0,9.0,76,-99.99,,,-99.99,,2013-03-31 18:03:00,
2013-03-31 14:13:00,51.0,44.0,-100.00,ESE,105,4.0,17.0,78,-99.99,,,-99.99,,2013-03-31 18:13:00,
2013-03-31 14:22:00,51.0,45.0,-100.00,ESE,115,7.0,12.0,80,-99.99,,,-99.99,,2013-03-31 18:22:00,
2013-03-31 14:33:00,51.0,45.0,-100.00,ESE,115,7.0,12.0,80,-99.99,,,-99.99,,2013-03-31 18:33:00,
2013-03-31 14:42:00,51.0,46.0,-100.00,ESE,120,4.0,13.0,82,-99.99,,,-99.99,,2013-03-31 18:42:00,
2013-03-31 14:52:00,51.0,46.0,-100.00,ESE,120,4.0,13.0,82,-99.99,,,-99.99,,2013-03-31 18:52:00,
2013-03-31 15:03:00,51.0,47.0,-100.00,East,100,6.0,16.0,85,-99.99,,,-99.99,,2013-03-31 19:03:00,
2013-03-31 15:12:00,51.0,48.0,-100.00,East,90,4.0,10.0,87,-99.99,,,-99.99,,2013-03-31 19:12:00,
2013-03-31 15:22:00,51.0,48.0,-100.00,East,90,4.0,10.0,87,-99.99,,,-99.99,,2013-03-31 19:22:00,
2013-03-31 15:33:00,52.0,50.0,-100.00,ENE,60,4.0,11.0,91,-99.99,,,-99.99,,2013-03-31 19:33:00,
2013-03-31 15:43:00,51.0,49.0,-100.00,East,80,6.0,11.0,93,-99.99,,,-99.99,,2013-03-31 19:43:00,
2013-03-31 15:53:00,51.0,50.0,-100.00,East,80,4.0,12.0,94,-99.99,,,-99.99,,2013-03-31 19:53:00,
2013-03-31 16:03:00,51.0,50.0,-100.00,East,80,4.0,12.0,94,-99.99,,,-99.99,,2013-03-31 20:03:00,
2013-03-31 16:12:00,51.0,49.0,-100.00,East,95,2.0,9.0,94,-99.99,,,-99.99,,2013-03-31 20:12:00,
2013-03-31 16:23:00,51.0,49.0,-100.00,East,95,2.0,9.0,94,-99.99,,,-99.99,,2013-03-31 20:23:00,
2013-03-31 16:34:00,51.0,50.0,-100.00,East,90,2.0,7.0,95,-99.99,,,-99.99,,2013-03-31 20:34:00,
2013-03-31 16:43:00,51.0,50.0,-100.00,East,85,4.0,9.0,95,-99.99,,,-99.99,,2013-03-31 20:43:00,
2013-03-31 16:52:00,51.0,50.0,-100.00,East,100,4.0,8.0,96,-99.99,,,-99.99,,2013-03-31 20:52:00,
2013-03-31 17:03:00,51.0,50.0,-100.00,East,100,4.0,8.0,96,-99.99,,,-99.99,,2013-03-31 21:03:00,
2013-03-31 17:12:00,51.0,50.0,-100.00,SSE,150,4.0,6.0,96,-99.99,,,-99.99,,2013-03-31 21:12:00,
2013-03-31 17:22:00,51.0,50.0,-100.00,SSE,150,4.0,6.0,96,-99.99,,,-99.99,,2013-03-31 21:22:00,
2013-03-31 17:34:00,51.0,50.0,-100.00,SE,125,2.0,7.0,96,-99.99,,,-99.99,,2013-03-31 21:34:00,
2013-03-31 17:43:00,51.0,51.0,-100.00,SE,135,4.0,9.0,97,-99.99,,,-99.99,,2013-03-31 21:43:00,
2013-03-31 17:53:00,51.0,51.0,-100.00,SE,135,4.0,9.0,97,-99.99,,,-99.99,,2013-03-31 21:53:00,
2013-03-31 18:04:00,51.0,51.0,-100.00,SE,145,5.0,8.0,97,-99.99,,,-99.99,,2013-03-31 22:04:00,
2013-03-31 18:13:00,51.0,51.0,-100.00,SE,145,4.0,10.0,97,-99.99,,,-99.99,,2013-03-31 22:13:00,
2013-03-31 18:23:00,51.0,51.0,-100.00,SE,145,4.0,10.0,97,-99.99,,,-99.99,,2013-03-31 22:23:00,
2013-03-31 18:33:00,51.0,51.0,-100.00,SSE,165,4.0,11.0,97,-99.99,,,-99.99,,2013-03-31 22:33:00,
2013-03-31 18:42:00,51.0,51.0,-100.00,South,170,3.0,9.0,97,-99.99,,,-99.99,,2013-03-31 22:42:00,
2013-03-31 18:53:00,51.0,51.0,-100.00,South,170,3.0,9.0,97,-99.99,,,-99.99,,2013-03-31 22:53:00,
2013-03-31 19:03:00,51.0,51.0,-100.00,South,170,3.0,9.0,97,-99.99,,,-99.99,,2013-03-31 23:03:00,
2013-03-31 19:13:00,51.0,51.0,-100.00,SSE,165,5.0,11.0,97,-99.99,,,-99.99,,2013-03-31 23:13:00,
2013-03-31 19:22:00,51.0,51.0,-100.00,South,170,5.0,7.0,97,-99.99,,,-99.99,,2013-03-31 23:22:00,
2013-03-31 19:33:00,51.0,51.0,-100.00,South,170,5.0,7.0,97,-99.99,,,-99.99,,2013-03-31 23:33:00,
2013-03-31 19:42:00,51.0,51.0,-100.00,South,185,3.0,7.0,97,-99.99,,,-99.99,,2013-03-31 23:42:00,
2013-03-31 19:53:00,51.0,51.0,-100.00,SSE,160,4.0,8.0,97,-99.99,,,-99.99,,2013-03-31 23:53:00,
2013-03-31 20:02:00,51.0,51.0,-100.00,SSE,160,4.0,8.0,97,-99.99,,,-99.99,,2013-04-01 00:02:00,
2013-03-31 20:13:00,51.0,50.0,-100.00,South,185,3.0,8.0,97,-99.99,,,-99.99,,2013-04-01 00:13:00,
2013-03-31 20:22:00,51.0,50.0,-100.00,South,185,3.0,8.0,97,-99.99,,,-99.99,,2013-04-01 00:22:00,
2013-03-31 20:32:00,51.0,50.0,-100.00,SSE,155,3.0,9.0,97,-99.99,,,-99.99,,2013-04-01 00:32:00,
2013-03-31 20:43:00,51.0,50.0,-100.00,SSW,205,2.0,7.0,97,-99.99,,,-99.99,,2013-04-01 00:43:00,
2013-03-31 20:52:00,51.0,50.0,-100.00,South,170,3.0,7.0,97,-99.99,,,-99.99,,2013-04-01 00:52:00,
2013-03-31 21:03:00,51.0,50.0,-100.00,South,170,3.0,7.0,97,-99.99,,,-99.99,,2013-04-01 01:03:00,
2013-03-31 21:12:00,51.0,50.0,-100.00,South,170,3.0,7.0,97,-99.99,,,-99.99,,2013-04-01 01:12:00,
2013-03-31 21:23:00,51.0,50.0,-100.00,South,170,3.0,7.0,97,-99.99,,,-99.99,,2013-04-01 01:23:00,
2013-03-31 21:33:00,50.0,49.0,-100.00,SSE,160,3.0,7.0,96,-99.99,,,-99.99,,2013-04-01 01:33:00,
2013-03-31 21:42:00,50.0,49.0,-100.00,SSE,160,4.0,9.0,95,-99.99,,,-99.99,,2013-04-01 01:42:00,
2013-03-31 21:53:00,50.0,48.0,-100.00,South,175,6.0,10.0,94,-99.99,,,-99.99,,2013-04-01 01:53:00,
2013-03-31 22:03:00,50.0,48.0,-100.00,South,175,6.0,10.0,94,-99.99,,,-99.99,,2013-04-01 02:03:00,
2013-03-31 22:13:00,50.0,48.0,-100.00,SSE,150,4.0,10.0,93,-99.99,,,-99.99,,2013-04-01 02:13:00,
2013-03-31 22:23:00,50.0,48.0,-100.00,South,180,4.0,10.0,93,-99.99,,,-99.99,,2013-04-01 02:23:00,
2013-03-31 22:33:00,50.0,48.0,-100.00,South,180,4.0,10.0,93,-99.99,,,-99.99,,2013-04-01 02:33:00,
2013-03-31 22:42:00,50.0,47.0,-100.00,South,180,4.0,7.0,92,-99.99,,,-99.99,,2013-04-01 02:42:00,
2013-03-31 22:52:00,50.0,47.0,-100.00,South,180,4.0,7.0,92,-99.99,,,-99.99,,2013-04-01 02:52:00,
2013-03-31 23:03:00,50.0,47.0,-100.00,South,180,3.0,10.0,92,-99.99,,,-99.99,,2013-04-01 03:03:00,
2013-03-31 23:12:00,50.0,47.0,-100.00,SSE,150,2.0,6.0,92,-99.99,,,-99.99,,2013-04-01 03:12:00,
2013-03-31 23:22:00,49.0,47.0,-100.00,SSE,165,2.0,8.0,92,-99.99,,,-99.99,,2013-04-01 03:22:00,
2013-03-31 23:34:00,49.0,47.0,-100.00,SSE,165,2.0,8.0,92,-99.99,,,-99.99,,2013-04-01 03:34:00,
2013-03-31 23:43:00,49.0,47.0,-100.00,SE,145,3.0,6.0,92,-99.99,,,-99.99,,2013-04-01 03:43:00,
2013-03-31 23:53:00,49.0,47.0,-100.00,SE,145,3.0,6.0,92,-99.99,,,-99.99,,2013-04-01 03:53:00,